Tracking 35237 objects as of 6-Sep-2026
HD Live streaming from Space Station
objects crossing your sky now

FLOCK 4BE 30

Track FLOCK 4BE 30 now!
10-day predictions
FLOCK 4BE 30 is classified as:


NORAD ID: 60499
Int'l Code: 2024-149AH
Launch date: August 16, 2024
Source: United States (US)
Launch site: AIR FORCE WESTERN TEST RANGE (AFWTR)
Your satellite tracking list
Your tracking list is empty




NASA's NSSDC Master Catalog

Two Line Element Set (TLE):
1 60499U 24149AH  26245.44974693  .07221783  24883-5  10997-2 0  9991
2 60499  97.3533 335.5739 0016248 277.9946  81.9507 16.33811038113920
Source of the keplerian elements: AFSPC